TimeCDT,TemperatureF,Dew PointF,Humidity,Sea Level PressureIn,VisibilityMPH,Wind Direction,Wind SpeedMPH,Gust SpeedMPH,PrecipitationIn,Events,Conditions,WindDirDegrees,DateUTC
12:53 AM,46.0,43.0,89,30.09,5.0,NW,6.9,-,N/A,,Clear,320,2013-05-06 05:53:00
1:53 AM,44.1,42.1,93,30.09,5.0,NW,4.6,-,N/A,,Clear,320,2013-05-06 06:53:00
2:53 AM,44.1,41.0,89,30.08,6.0,NW,6.9,-,N/A,,Clear,310,2013-05-06 07:53:00
3:53 AM,43.0,41.0,93,30.08,6.0,NW,4.6,-,N/A,,Clear,320,2013-05-06 08:53:00
4:53 AM,43.0,41.0,93,30.09,7.0,NW,8.1,-,N/A,,Clear,320,2013-05-06 09:53:00
5:53 AM,43.0,39.9,89,30.09,6.0,NW,9.2,-,N/A,,Clear,320,2013-05-06 10:53:00
6:53 AM,43.0,41.0,93,30.10,6.0,NW,10.4,-,N/A,,Clear,320,2013-05-06 11:53:00
7:53 AM,45.0,42.1,90,30.12,8.0,NW,8.1,-,N/A,,Clear,320,2013-05-06 12:53:00
8:53 AM,50.0,46.0,86,30.12,9.0,North,8.1,-,N/A,,Clear,350,2013-05-06 13:53:00
9:53 AM,55.9,48.9,77,30.11,10.0,NNW,5.8,-,N/A,,Clear,340,2013-05-06 14:53:00
10:53 AM,61.0,51.1,70,30.11,10.0,North,6.9,-,N/A,,Clear,360,2013-05-06 15:53:00
11:53 AM,64.9,52.0,63,30.10,10.0,NE,5.8,-,N/A,,Clear,40,2013-05-06 16:53:00
12:53 PM,66.9,52.0,59,30.08,10.0,NNE,8.1,-,N/A,,Clear,20,2013-05-06 17:53:00
1:53 PM,69.1,50.0,51,30.07,10.0,North,8.1,-,N/A,,Clear,10,2013-05-06 18:53:00
2:53 PM,69.1,48.9,49,30.06,10.0,Variable,3.5,-,N/A,,Partly Cloudy,0,2013-05-06 19:53:00
3:53 PM,69.1,46.0,44,30.05,10.0,WNW,4.6,-,N/A,,Mostly Cloudy,300,2013-05-06 20:53:00
4:53 PM,70.0,46.0,42,30.04,10.0,Variable,6.9,-,N/A,,Overcast,0,2013-05-06 21:53:00
5:53 PM,70.0,45.0,41,30.03,10.0,WNW,5.8,-,N/A,,Partly Cloudy,290,2013-05-06 22:53:00
6:53 PM,69.1,46.9,45,30.03,10.0,NNW,5.8,-,N/A,,Partly Cloudy,330,2013-05-06 23:53:00
7:53 PM,64.9,48.9,56,30.03,10.0,North,3.5,-,N/A,,Clear,10,2013-05-07 00:53:00
8:53 PM,57.9,52.0,81,30.04,10.0,North,3.5,-,N/A,,Clear,360,2013-05-07 01:53:00
9:53 PM,55.0,46.9,74,30.05,10.0,Calm,Calm,-,N/A,,Clear,0,2013-05-07 02:53:00
10:53 PM,51.1,46.0,83,30.06,10.0,West,3.5,-,N/A,,Clear,270,2013-05-07 03:53:00
11:53 PM,52.0,46.0,80,30.06,10.0,WNW,4.6,-,N/A,,Clear,290,2013-05-07 04:53:00